DW4212 La Cabrera ES current weather conditions

sailwx.info

Wind from 218

Air temperature 16.7° C
Dewpoint 13.0° C

Last reported at 2014-Oct-01 21:39 UTC.
Time now 2014-Oct-01 22:28 UTC

Location: N 40°53' W 003°35'.
View on Google Maps.

See reports from other nearby stations

  
Tides and Currents Weather Stations Pressure Air Temp Water Temp Dewpoint Dewpoint Depression Visibility Wind Speed Wind Dir Waves Ship Positions
date/time (UTC)wind fromknots sea level pressurealtimeterstation pressurevisibilityair tempwater tempwave heightnotes
2014-Oct-01 21:39 218 16.7
2014-Oct-01 21:29 219 16.7
2014-Oct-01 21:19 218 16.7
2014-Oct-01 21:09 218 16.7
2014-Oct-01 20:59 219 17.2
2014-Oct-01 20:49 219 17.2
2014-Oct-01 20:39 191 0 gusting 4 17.2
2014-Oct-01 20:29 207 0 gusting 6 17.8
2014-Oct-01 20:19 194 0 gusting 3 17.8
2014-Oct-01 20:09 228 17.8
2014-Oct-01 19:59 228 17.8
2014-Oct-01 19:49 236 17.8
2014-Oct-01 19:39 229 18.3
2014-Oct-01 19:29 227 18.3
2014-Oct-01 19:19 248 18.3
2014-Oct-01 19:09 210 18.3
2014-Oct-01 18:59 255 18.3
2014-Oct-01 18:49 183 18.9
2014-Oct-01 18:39 182 18.9
2014-Oct-01 18:29 182 19.4
2014-Oct-01 18:19 182 20.0
2014-Oct-01 18:09 182 20.0
2014-Oct-01 17:59 182 20.6
2014-Oct-01 17:49 182 21.1
2014-Oct-01 17:39 182 21.1
2014-Oct-01 17:29 182 21.1
2014-Oct-01 17:19 182 21.7
2014-Oct-01 17:09 182 21.7
2014-Oct-01 16:59 182 22.2
2014-Oct-01 16:49 182 22.2
2014-Oct-01 16:39 182 22.2
2014-Oct-01 16:29 182 22.2
2014-Oct-01 16:19 182 22.2
2014-Oct-01 16:09 186 0 gusting 5 22.2
2014-Oct-01 15:59 180 0 gusting 4 22.8
2014-Oct-01 15:49 194 1 gusting 6 22.8
2014-Oct-01 15:39 172 22.8
2014-Oct-01 15:29 182 23.3
2014-Oct-01 15:19 169 23.3
2014-Oct-01 15:09 251 23.3
2014-Oct-01 14:59 192 22.8
2014-Oct-01 14:49 204 0 gusting 8 23.3
2014-Oct-01 14:39 168 1 gusting 4 23.3
2014-Oct-01 14:29 182 0 gusting 5 23.3
2014-Oct-01 14:19 196 23.3
2014-Oct-01 14:09 196 0 gusting 5 22.2
2014-Oct-01 13:59 097 22.2
2014-Oct-01 13:49 204 22.2
2014-Oct-01 13:39 168 1 gusting 6 22.8
2014-Oct-01 13:29 143 22.2
2014-Oct-01 13:19 160 22.2
2014-Oct-01 13:09 174 1 gusting 5 21.7
2014-Oct-01 12:59 094 20.0
2014-Oct-01 12:49 124 20.0
2014-Oct-01 12:39 178 21.1
2014-Oct-01 12:29 150 0 gusting 3 21.7
2014-Oct-01 12:19 115 21.7
2014-Oct-01 12:09 138 21.7
2014-Oct-01 11:59 192 0 gusting 6 22.2
2014-Oct-01 11:49 212 0 gusting 6 22.2
2014-Oct-01 11:39 099 22.2
2014-Oct-01 11:29 157 0 gusting 6 22.8
2014-Oct-01 11:19 166 1 gusting 5 22.2
2014-Oct-01 11:09 171 21.7
2014-Oct-01 10:59 179 0 gusting 4 20.6
2014-Oct-01 10:49 104 0 gusting 4 21.1
2014-Oct-01 10:39 205 21.1
2014-Oct-01 10:29 092 20.6
2014-Oct-01 10:19 084 20.6
2014-Oct-01 10:09 044 20.0
2014-Oct-01 09:59 360 20.0
2014-Oct-01 09:49 360 0 gusting 3 19.4
2014-Oct-01 09:39 355 18.9
2014-Oct-01 09:29 355 1 gusting 5 18.9
2014-Oct-01 09:19 355 0 gusting 4 18.9
2014-Oct-01 09:09 344 1 gusting 4 18.3
2014-Oct-01 08:59 355 1 gusting 4 18.3
2014-Oct-01 08:49 005 1 gusting 3 17.8
2014-Oct-01 08:39 044 0 gusting 3 17.8
2014-Oct-01 08:29 355 0 gusting 5 17.2
2014-Oct-01 08:19 355 1 gusting 4 17.2
2014-Oct-01 08:09 355 17.2
2014-Oct-01 07:59 360 1 gusting 4 16.1
2014-Oct-01 07:49 355 0 gusting 4 15.6
2014-Oct-01 07:39 360 0 gusting 4 15.0
2014-Oct-01 07:29 355 1 gusting 5 14.4
2014-Oct-01 07:19 015 0 gusting 3 13.9
2014-Oct-01 07:09 355 1 gusting 4 13.3
2014-Oct-01 06:59 355 2 gusting 5 12.8
2014-Oct-01 06:49 360 1 gusting 3 12.2
2014-Oct-01 06:39 355 3 gusting 4 12.2
2014-Oct-01 06:29 355 11.7
2014-Oct-01 06:19 355 11.7
2014-Oct-01 06:09 355 11.7
2014-Oct-01 05:59 355 11.7
2014-Oct-01 05:49 355 12.2
2014-Oct-01 05:39 355 12.2
2014-Oct-01 05:29 355 12.2
2014-Oct-01 05:19 355 12.2
2014-Oct-01 05:09 355 12.2
2014-Oct-01 04:59 355 12.2
2014-Oct-01 04:49 355 12.8
2014-Oct-01 04:39 355 12.8
2014-Oct-01 04:29 355 12.8
2014-Oct-01 04:19 355 12.2
2014-Oct-01 04:09 355 12.8
2014-Oct-01 03:59 355 12.8
2014-Oct-01 03:49 355 12.8
2014-Oct-01 03:39 355 12.8
2014-Oct-01 03:29 355 12.8
2014-Oct-01 03:19 355 12.8
2014-Oct-01 03:09 355 12.8
2014-Oct-01 02:59 355 12.8
2014-Oct-01 02:49 355 13.3
2014-Oct-01 02:39 355 13.3
2014-Oct-01 02:29 355 13.3
2014-Oct-01 02:19 355 13.3
2014-Oct-01 02:09 355 13.3
2014-Oct-01 01:59 355 13.3
2014-Oct-01 01:49 355 13.3
2014-Oct-01 01:39 355 13.9
2014-Oct-01 01:29 355 13.9
2014-Oct-01 01:19 355 13.9
2014-Oct-01 01:09 355 13.9
2014-Oct-01 00:59 355 14.4
2014-Oct-01 00:49 355 14.4
2014-Oct-01 00:39 355 0 gusting 3 13.9
2014-Oct-01 00:29 355 1 gusting 2 13.9
2014-Oct-01 00:19 009 14.4
2014-Sep-30 23:59 355 2 gusting 5 15.0
2014-Sep-30 23:49 355 1 gusting 4 15.6
2014-Sep-30 23:39 360 15.0
2014-Sep-30 23:29 360 0 gusting 3 15.0
2014-Sep-30 23:19 360 15.6
2014-Sep-30 23:09 360 15.6
2014-Sep-30 22:59 360 0 gusting 3 15.6
2014-Sep-30 22:49 344 0 gusting 2 16.1
2014-Sep-30 22:39 343 16.1
2014-Sep-30 22:29 005 1 gusting 4 16.1
2014-Sep-30 22:19 355 0 gusting 5 16.1
2014-Sep-30 22:09 342 0 gusting 6 16.1
2014-Sep-30 21:59 355 1 gusting 3 16.1
2014-Sep-30 21:49 085 0 gusting 2 16.1
2014-Sep-30 21:39 056 16.1
2014-Sep-30 21:29 065 16.1
2014-Sep-30 21:19 063 16.1
2014-Sep-30 21:09 063 15.6
2014-Sep-30 20:59 063 15.6
2014-Sep-30 20:49 063 15.6
2014-Sep-30 20:39 063 15.6
2014-Sep-30 20:29 063 15.6
2014-Sep-30 20:19 063 15.6
2014-Sep-30 20:09 063 15.6
2014-Sep-30 19:59 063 16.1
2014-Sep-30 19:49 063 16.1
2014-Sep-30 19:39 063 16.1
2014-Sep-30 19:29 063 16.7
2014-Sep-30 19:19 063 17.2
2014-Sep-30 19:09 063 17.2
2014-Sep-30 18:49 063 17.8
2014-Sep-30 18:39 063 18.3
2014-Sep-30 18:29 063 18.3
2014-Sep-30 18:19 063 18.9
2014-Sep-30 18:09 063 19.4
2014-Sep-30 17:59 071 19.4
2014-Sep-30 17:49 071 20.0
2014-Sep-30 17:39 071 20.0
2014-Sep-30 17:29 071 20.6
2014-Sep-30 17:19 071 20.6
2014-Sep-30 17:09 071 20.6
2014-Sep-30 16:59 071 21.1
2014-Sep-30 16:49 071 21.1
2014-Sep-30 16:39 071 21.1
2014-Sep-30 16:29 071 21.1
2014-Sep-30 16:19 074 0 gusting 1 21.7
2014-Sep-30 16:09 055 21.7
2014-Sep-30 15:59 051 284 gusting 284 21.7
2014-Sep-30 15:39 064 22.8
2014-Sep-30 15:29 061 22.8
2014-Sep-30 15:19 042 284 gusting 284 22.2
2014-Sep-30 15:09 134 22.2
2014-Sep-30 14:59 190 22.8
2014-Sep-30 14:49 190 23.3
2014-Sep-30 14:39 225 22.8
2014-Sep-30 14:29 190 22.8
2014-Sep-30 14:19 252 0 gusting 3 22.2
2014-Sep-30 14:09 198 21.7
2014-Sep-30 13:59 198 0 gusting 4 21.7
2014-Sep-30 13:49 177 0 gusting 5 21.1
2014-Sep-30 13:39 088 0 gusting 3 21.1
2014-Sep-30 13:29 111 0 gusting 6 21.1
2014-Sep-30 13:19 109 22.2
2014-Sep-30 13:09 192 22.8
2014-Sep-30 12:59 253 0 gusting 4 22.2
2014-Sep-30 12:49 186 0 gusting 6 22.2
2014-Sep-30 12:39 066 21.1
2014-Sep-30 12:29 198 21.1
2014-Sep-30 12:19 221 2 gusting 6 21.1
2014-Sep-30 12:09 132 21.1
2014-Sep-30 11:59 163 20.0
2014-Sep-30 11:49 107 19.4
2014-Sep-30 11:39 127 0 gusting 3 20.6
2014-Sep-30 11:29 104 20.0
2014-Sep-30 11:19 184 0 gusting 3 19.4
2014-Sep-30 11:09 182 0 gusting 3 20.0
2014-Sep-30 10:59 107 20.0
2014-Sep-30 10:49 112 0 gusting 5 19.4
2014-Sep-30 10:39 182 20.0
2014-Sep-30 10:29 132 19.4
2014-Sep-30 10:19 198 0 gusting 4 19.4
2014-Sep-30 10:09 097 19.4
2014-Sep-30 09:59 085 18.9
2014-Sep-30 09:49 138 18.9
2014-Sep-30 09:39 096 0 gusting 2 18.3
2014-Sep-30 09:29 063 18.3
2014-Sep-30 09:19 067 0 gusting 2 17.8
2014-Sep-30 09:09 099 17.8
2014-Sep-30 08:59 099 17.2
2014-Sep-30 08:49 082 16.7
2014-Sep-30 08:39 082 15.6
2014-Sep-30 08:29 056 15.6
2014-Sep-30 08:19 056 15.0
2014-Sep-30 08:09 355 15.0
2014-Sep-30 07:59 355 15.0
2014-Sep-30 07:49 355 13.3
2014-Sep-30 07:39 355 12.8
2014-Sep-30 07:29 355 11.7
2014-Sep-30 07:19 355 11.1
2014-Sep-30 07:09 355 11.1
2014-Sep-30 06:59 355 10.6
2014-Sep-30 06:49 355 10.6
2014-Sep-30 06:39 355 10.6
2014-Sep-30 06:29 355 10.6
2014-Sep-30 06:19 355 10.6
2014-Sep-30 06:09 355 10.6
2014-Sep-30 05:59 355 10.6
2014-Sep-30 05:49 355 10.6
2014-Sep-30 04:49 355 11.1
2014-Sep-30 04:39 355 11.1
2014-Sep-30 04:29 355 11.1
2014-Sep-30 04:19 355 11.1
2014-Sep-30 03:59 355 11.7
2014-Sep-30 03:49 355 11.7
2014-Sep-30 03:39 355 1 gusting 2 11.7
2014-Sep-30 03:29 355 11.7
2014-Sep-30 03:19 345 11.7
2014-Sep-30 03:09 345 11.7
2014-Sep-30 02:59 345 11.7
2014-Sep-30 02:49 345 11.7
2014-Sep-30 02:39 345 11.7
2014-Sep-30 02:29 345 11.7
2014-Sep-30 02:19 345 11.7
2014-Sep-30 02:09 345 11.7
2014-Sep-30 01:59 345 11.7
2014-Sep-30 01:49 345 11.7
2014-Sep-30 01:39 345 11.7
2014-Sep-30 01:29 345 12.2
2014-Sep-30 01:19 345 12.2
2014-Sep-30 01:09 345 12.2
2014-Sep-30 00:59 345 12.2
2014-Sep-30 00:49 345 12.2
2014-Sep-30 00:39 345 12.2
2014-Sep-30 00:29 345 12.8
2014-Sep-30 00:19 345 12.8
2014-Sep-30 00:09 345 12.8
2014-Sep-29 23:59 345 12.8
2014-Sep-29 23:49 343 12.8
2014-Sep-29 23:39 343 12.8
2014-Sep-29 23:29 343 12.8
2014-Sep-29 23:19 343 13.3
2014-Sep-29 23:09 343 13.9
2014-Sep-29 22:59 343 13.9
2014-Sep-29 22:49 343 1 gusting 3 14.4
2014-Sep-29 22:39 342 0 gusting 2 14.4
2014-Sep-29 22:29 343 15.0
2014-Sep-29 22:19 343 0 gusting 2 15.0
2014-Sep-29 22:09 338 0 gusting 3 15.0